STARLINK-5673, 55462

Orbit data source: Space-Track

STARLINK-5673, 55462 is a payload satellite owned by SpaceX/Seattle (US) in LEO that was launched on Thu, 02 Feb 2023 UTC via an FALCON 9 launch vehicle from the Air Force Eastern Test Range (AFETR). Payload-class satellites include a variety of spacecraft equipped with specific instruments for various scientific and technological missions. These include communications satellites like Starlink; space stations such as the ISS; scientific satellites like the Hubble; Earth observation satellites from companies like Planet Labs, Umbra, and HawkEye 360; GPS; miniature CubeSats for education and research; and military/defense satellites.

Loading next visibility...
Identifier
55462, 2023-015P
Orbit
LEO
Country
Flag of USUS
Related business
Manufacturer
SpaceX/Seattle
Mission
Operational Commercial Communications
Bus & Motor
STARLINK, Unknown motor
Mass
305 kg wet, ~290 kg dry
Launch date (UTC)
2023-02-02 (3 years ago)
Launch vehicle
FALCON 9
Launch site
Air Force Eastern Test Range (AFETR)
Object type
Payload
Rocket body
Debris
Shape & HBR
Box + 1 Pan, 10.1 m
Radar Cross Section
13.562 m², Large (>1 m²)

Expand to show TLE details & history
Last TLE update: 22 hours ago

TLE from 22 hours ago
0 STARLINK-5673
1 55462U 23015P   25352.44727381  .00000054  00000-0  19074-4 0  9990
2 55462  43.0056  47.3867 0001428 272.6576  87.4103 15.02540957158530
Epoch: 2025-12-18T10:44Z
TLE epoch observation values (Epoch: 2025-12-18T10:44:04.457Z)
Latitude
Longitude
159.06548°
Altitude
558.798 km
Speed
7.584 km/s
True Right ascension
03h 09m 32s
True Declination
0° 00' 00"
Sunlit
Object was in full shadow at epoch
Visualization orbit readout
Latitude
Unknown
Longitude
Unknown
Altitude
Unknown
Speed
Unknown
Apparent Right ascension
Unknown
Apparent Declination
Unknown
Sunlit
N/A
Visualization observer readout
Local Sidereal Time
07:43:52
Azimuth
Unknown
Elevation
Unknown
Doppler factor
Unknown
Orbital elements
Apogee altitude
561.978 km
Perigee altitude
559.996 km
Semi-major axis
6,939.124 km
Eccentricity
0.00014
Inclination
43.0056°
RAAN
47.3867°
Arg. of periapsis
272.6576°
True anomaly
87.42665°
Mean anomaly
87.4103°
Eccentric anomaly
87.41847°
Mean motion
3.75479 °/min
Orbital period
95.88 mins
BSTAR
0.000019074
Loading maneuver chart data...
Computing Atmospheric mass density...
Loading historical data...
Loading historical data...
Loading historical data...
Loading historical data...
Loading historical data...
Loading historical data...
Loading historical data...

Documentation

Showing up to 5 results
|